Location: Baia Mare
(47.6567°N, 23.5850°E)
Time: 16:56:10
(UTC+03:00)

ISS - Pass Details

Date: 09 July 2018
Orbit: 402 x 408 km, 51.6° (Epoch: 23 July)

Event Time Altitude Azimuth Distance (km) Brightness Sun altitude
Exits shadow 04:46:11 - 259° (W) 1,778 -1.1 -7.4°
Reaches altitude 10° 04:46:57 10° 261° (W) 1,469 -1.5 -7.3°
Maximum altitude 04:50:12 60° 342° (NNW) 474 -3.3 -6.9°
Drops below altitude 10° 04:53:29 10° 64° (ENE) 1,476 0.5 -6.5°
Sets 04:55:36 0° 68° (ENE) 2,339 1.6 -6.3°
